Location: Christianberg
(48.9086°N, 14.0209°E)
Time: 21:34:04
(UTC+00:00)

Cosmos 1656 Rocket - Pass Details

Date: 20 June 2021
Orbit: 794 x 847 km, 71.1° (Epoch: 04 August)

Event Time Altitude Azimuth Distance (km) Brightness Sun altitude
Rises 00:17:47 0° 330° (NNW) 3,420 7.5 -15.9°
Reaches altitude 10° 00:20:16 10° 327° (NNW) 2,482 6.7 -15.8°
Maximum altitude 00:25:54 66° 247° (WSW) 924 3.7 -15.5°
Enters shadow 00:30:07 18° 169° (S) 1,948 5.1 -15.2°
